Showing default

TIROS 3, 162

Orbit data source: Space-Track

TIROS 3, 162 is a payload satellite owned by GSFC (US) in LEO that was launched on Wed, 12 Jul 1961 UTC via a THOR DELTA launch vehicle from the Air Force Eastern Test Range (AFETR). Payload-class satellites include a variety of spacecraft equipped with specific instruments for various scientific and technological missions. These include communications satellites like Starlink; space stations such as the ISS; scientific satellites like the Hubble; Earth observation satellites from companies like Planet Labs, Umbra, and HawkEye 360; GPS; miniature CubeSats for education and research; and military/defense satellites.

Loading next visibility...
Identifier
162, 1961-017A
Orbit
LEO
Country
Flag of USUS
Related business
Manufacturer
RCA/East Windsor
Mission
Non-operational spacecraft
Bus & Motor
TIROS, Unknown motor
Mass
129 kg wet, 129 kg dry
Launch date (UTC)
1961-07-12 (64 years ago)
Launch vehicle
THOR DELTA
Launch site
Air Force Eastern Test Range (AFETR)
Object type
Payload
Rocket body
Debris
Shape & HBR
Unknown
Radar Cross Section
Medium (>0.1 m² and <1 m²)

Expand to show TLE details & history
Last TLE update: 13 hours ago

TLE from 13 hours ago
0 TIROS 3
1 00162U 61017A   25291.97324714  .00000204  00000-0  10318-3 0  9992
2 00162  47.9006  26.0138 0043406  34.1042 326.2627 14.45254224356889
Epoch: 2025-10-18T23:21Z
TLE epoch observation values (Epoch: 2025-10-18T23:21:28.552Z)
Latitude
-0.00004°
Longitude
7.94821°
Altitude
715.847 km
Speed
7.512 km/s
True Right ascension
01h 44m 03s
True Declination
0° 00' 00"
Sunlit
Object was in full shadow at epoch
Visualization orbit readout
Latitude
Unknown
Longitude
Unknown
Altitude
Unknown
Speed
Unknown
Apparent Right ascension
Unknown
Apparent Declination
Unknown
Sunlit
N/A
Visualization observer readout
Local Sidereal Time
07:38:39
Azimuth
Unknown
Elevation
Unknown
Doppler factor
Unknown
Orbital elements
Apogee altitude
773.18 km
Perigee altitude
711.366 km
Semi-major axis
7,120.41 km
Eccentricity
0.00434
Inclination
47.9006°
RAAN
26.0138°
Arg. of periapsis
34.1042°
True anomaly
325.9852°
Mean anomaly
326.2627°
Eccentric anomaly
326.12408°
Mean motion
3.61232 °/min
Orbital period
99.66 mins
BSTAR
0.00010318
Loading maneuver chart data...
Computing Atmospheric mass density...
Loading historical data...
Loading historical data...
Loading historical data...
Loading historical data...
Loading historical data...
Loading historical data...
Loading historical data...
Other satellites on launch #17 in the year 1961 (1961-07-12 UTC)

Documentation

Showing up to 5 results
|